Weather History for Howell, MI

Change the Weather History Date:

Saturday, June 8, 2013

  Actual Average Record
Temperature  
Mean Temperature 64 °F -  
Max Temperature 72 °F 74 °F 93 °F (2011)
Min Temperature 55 °F 54 °F 42 °F (1998)
Degree Days  
Heating Degree Days 2    
Growing Degree Days 14 (Base 50)    
Moisture  
Dew Point 52 °F    
Average Humidity 71    
Maximum Humidity 94    
Minimum Humidity 44    
Precipitation  
Precipitation 0.00 in - - ()
Sea Level Pressure  
Sea Level Pressure 29.99 in    
Wind  
Wind Speed 1 mph (East)    
Max Wind Speed 5 mph    
Max Gust Speed -    
Visibility 10 miles    
Events      
Averages and records for this station are not official NWS values.
T = Trace of Precipitation, MM = Missing Value Source: NWS Daily Summary

Daily Weather History Graph

Daily Weather History Graph

Search for Another Location

Airport:

Trip Planner

Search our weather history database for the weather conditions in past years. The results will help you decide how hot, cold, wet, or windy it might be!

Date:

Astronomy

Jun. 08, 2013 Rise Set
Actual Time 5:58 AM EDT 9:12 PM EDT
Civil Twilight 5:23 AM EDT 9:46 PM EDT
Nautical Twilight 4:38 AM EDT 10:31 PM EDT
Astronomical Twilight 3:44 AM EDT 11:26 PM EDT
Moon 6:06 AM EDT (6/8) 9:12 PM EDT (6/8)
Length of Visible Light 16h 23m
Length of Day
15h 13m
New Moon, 0% of the Moon is Illuminated
Jun 8
New Moon
Jun 16
First Quarter
Jun 23
Full
Jun 30
Last Quarter
Jul 8
New

Hourly Weather History & Observations

Time (EDT) Temp. Dew Point Humidity Pressure Visibility Wind Dir Wind Speed Gust Speed Precip Events Conditions
12:14 AM 55.8 °F 52.9 °F 90% 29.92 in 10.0 mi Calm Calm - N/A   Overcast
12:35 AM 55.8 °F 53.1 °F 91% 29.92 in 10.0 mi Calm Calm - N/A   Overcast
12:55 AM 55.8 °F 53.6 °F 92% 29.92 in 10.0 mi Calm Calm - N/A   Overcast
1:14 AM 56.5 °F 54.1 °F 92% 29.92 in 10.0 mi Calm Calm - N/A   Overcast
1:35 AM 56.3 °F 53.8 °F 91% 29.92 in 10.0 mi Calm Calm - N/A   Overcast
1:55 AM 55.9 °F 53.6 °F 92% 29.92 in 10.0 mi Calm Calm - N/A   Overcast
2:14 AM 56.3 °F 54.0 °F 92% 29.92 in 10.0 mi Calm Calm - N/A   Overcast
2:35 AM 55.8 °F 53.8 °F 93% 29.92 in 10.0 mi Calm Calm - N/A   Overcast
2:55 AM 55.9 °F 53.8 °F 92% 29.92 in 10.0 mi Calm Calm - N/A   Overcast
3:15 AM 55.9 °F 53.6 °F 92% 29.92 in 10.0 mi Calm Calm - N/A   Overcast
3:35 AM 56.1 °F 53.8 °F 92% 29.92 in 10.0 mi Calm Calm - N/A   Overcast
3:55 AM 56.1 °F 53.1 °F 89% 29.92 in 10.0 mi Calm Calm - N/A   Overcast
4:15 AM 56.1 °F 52.9 °F 89% 29.92 in 10.0 mi Calm Calm - N/A   Overcast
4:35 AM 55.4 °F 53.1 °F 92% 29.92 in 10.0 mi Calm Calm - N/A   Overcast
4:54 AM 55.2 °F 53.1 °F 92% 29.93 in 10.0 mi Calm Calm - N/A   Overcast
5:15 AM 55.4 °F 53.6 °F 94% 29.93 in 10.0 mi Calm Calm - N/A   Overcast
5:35 AM 55.4 °F 53.6 °F 94% 29.93 in 10.0 mi Calm Calm - N/A   Overcast
5:54 AM 55.4 °F 53.6 °F 94% 29.95 in 10.0 mi Calm Calm - N/A   Overcast
6:15 AM 55.4 °F 53.6 °F 94% 29.95 in 10.0 mi Calm Calm - N/A   Overcast
6:34 AM 55.6 °F 53.6 °F 93% 29.96 in 10.0 mi Calm Calm - N/A   Overcast
6:55 AM 55.9 °F 53.8 °F 92% 29.96 in 10.0 mi Calm Calm - N/A   Overcast
7:15 AM 56.3 °F 54.1 °F 92% 29.97 in 10.0 mi Calm Calm - N/A   Overcast
7:34 AM 56.7 °F 54.0 °F 91% 29.97 in 10.0 mi Calm Calm - N/A   Overcast
7:55 AM 57.2 °F 53.6 °F 88% 29.98 in 10.0 mi Calm Calm - N/A   Scattered Clouds
8:15 AM 58.3 °F 53.2 °F 83% 29.98 in 10.0 mi Calm Calm - N/A   Mostly Cloudy
8:35 AM 59.9 °F 53.1 °F 78% 29.98 in 10.0 mi Calm Calm - N/A   Scattered Clouds
8:55 AM 60.6 °F 52.7 °F 75% 29.98 in 10.0 mi North 3.5 mph - N/A   Clear
9:15 AM 61.3 °F 52.5 °F 73% 29.99 in 10.0 mi Calm Calm - N/A   Scattered Clouds
9:35 AM 61.2 °F 51.4 °F 70% 30.00 in 10.0 mi Calm Calm - N/A   Mostly Cloudy
9:55 AM 61.0 °F 52.0 °F 72% 30.00 in 10.0 mi East 4.6 mph - N/A   Overcast
10:15 AM 61.0 °F 51.3 °F 70% 30.01 in 10.0 mi ESE 3.5 mph - N/A   Overcast
10:35 AM 61.2 °F 51.8 °F 71% 30.01 in 10.0 mi Calm Calm - N/A   Overcast
10:55 AM 61.5 °F 51.8 °F 70% 30.00 in 10.0 mi ENE 3.5 mph - N/A   Overcast
11:15 AM 61.9 °F 50.9 °F 67% 30.01 in 10.0 mi Calm Calm - N/A   Overcast
11:35 AM 62.4 °F 51.3 °F 67% 30.02 in 10.0 mi Calm Calm - N/A   Overcast
11:55 AM 62.8 °F 51.6 °F 67% 30.03 in 10.0 mi Calm Calm - N/A   Overcast
12:15 PM 64.8 °F 52.9 °F 65% 30.03 in 10.0 mi East 4.6 mph - N/A   Overcast
12:35 PM 66.0 °F 51.8 °F 60% 30.03 in 10.0 mi Calm Calm - N/A   Mostly Cloudy
12:55 PM 67.3 °F 50.9 °F 56% 30.02 in 10.0 mi East 4.6 mph - N/A   Mostly Cloudy
1:15 PM 66.7 °F 50.5 °F 56% 30.00 in 10.0 mi North 3.5 mph - N/A   Scattered Clouds
1:35 PM 68.2 °F 50.5 °F 53% 30.00 in 10.0 mi SW 3.5 mph - N/A   Scattered Clouds
1:54 PM 67.3 °F 50.0 °F 54% 30.00 in 7.0 mi Calm Calm - N/A   Scattered Clouds
2:15 PM 67.1 °F 50.0 °F 54% 30.00 in 10.0 mi Calm Calm - N/A   Mostly Cloudy
2:35 PM 67.8 °F 51.4 °F 56% 30.00 in 10.0 mi Calm Calm - N/A   Mostly Cloudy
2:54 PM 68.4 °F 49.3 °F 50% 30.00 in 10.0 mi Calm Calm - N/A   Scattered Clouds
3:15 PM 71.8 °F 50.5 °F 47% 30.00 in 10.0 mi Calm Calm - N/A   Mostly Cloudy
3:35 PM 70.9 °F 49.8 °F 47% 30.00 in 10.0 mi Calm Calm - N/A   Mostly Cloudy
3:54 PM 70.7 °F 49.6 °F 47% 30.00 in 10.0 mi SSW 3.5 mph - N/A   Scattered Clouds
4:15 PM 71.6 °F 48.7 °F 44% 30.00 in 10.0 mi Calm Calm - N/A   Scattered Clouds
4:35 PM 71.4 °F 48.7 °F 45% 30.00 in 10.0 mi NNW 4.6 mph - N/A   Scattered Clouds
4:55 PM 70.5 °F 48.2 °F 45% 30.00 in 10.0 mi Calm Calm - N/A   Scattered Clouds
5:15 PM 72.0 °F 49.6 °F 45% 30.00 in 10.0 mi WNW 3.5 mph - N/A   Scattered Clouds
5:34 PM 71.1 °F 48.4 °F 44% 30.00 in 10.0 mi Calm Calm - N/A   Scattered Clouds
5:55 PM 70.5 °F 48.7 °F 46% 30.01 in 10.0 mi West 3.5 mph - N/A   Clear
6:15 PM 71.4 °F 48.6 °F 44% 30.01 in 10.0 mi Calm Calm - N/A   Clear
6:35 PM 71.2 °F 49.6 °F 46% 30.01 in 10.0 mi Calm Calm - N/A   Scattered Clouds
6:55 PM 70.2 °F 49.3 °F 47% 30.02 in 10.0 mi Calm Calm - N/A   Mostly Cloudy
7:15 PM 69.1 °F 50.9 °F 52% 30.02 in 10.0 mi Calm Calm - N/A   Mostly Cloudy
7:35 PM 69.1 °F 51.4 °F 53% 30.03 in 10.0 mi Calm Calm - N/A   Overcast
7:55 PM 68.9 °F 51.3 °F 53% 30.03 in 10.0 mi NE 3.5 mph - N/A   Mostly Cloudy
8:15 PM 68.7 °F 52.2 °F 55% 30.03 in 10.0 mi Calm Calm - N/A   Mostly Cloudy
8:35 PM 68.0 °F 52.3 °F 57% 30.03 in 10.0 mi Calm Calm - N/A   Overcast
8:55 PM 67.1 °F 52.7 °F 60% 30.04 in 10.0 mi Calm Calm - N/A   Overcast
9:14 PM 66.4 °F 53.6 °F 63% 30.04 in 10.0 mi Calm Calm - N/A   Overcast
9:35 PM 65.7 °F 52.9 °F 63% 30.04 in 10.0 mi Calm Calm - N/A   Overcast
9:55 PM 65.1 °F 53.1 °F 65% 30.05 in 10.0 mi Calm Calm - N/A   Mostly Cloudy
10:14 PM 63.7 °F 54.0 °F 71% 30.06 in 10.0 mi SE 3.5 mph - N/A   Overcast
10:35 PM 63.1 °F 53.6 °F 71% 30.07 in 10.0 mi Calm Calm - N/A   Overcast
10:55 PM 61.7 °F 54.9 °F 78% 30.07 in 10.0 mi Calm Calm - N/A   Scattered Clouds
11:14 PM 60.8 °F 53.8 °F 78% 30.08 in 10.0 mi ESE 3.5 mph - N/A   Clear
11:35 PM 61.0 °F 53.1 °F 75% 30.08 in 10.0 mi SE 3.5 mph - N/A   Clear
11:55 PM 60.8 °F 53.1 °F 76% 30.08 in 10.0 mi SE 3.5 mph - N/A   Clear